Location: Ab? ar R?sh Ba?r?
(24.1861°N, 32.8847°E)
Time: 13:15:06
(UTC+00:00)

Milstar 3 Cent rocket - Pass Details

Date: 29 May 2022
Orbit: 706 x 5146 km, 28.3° (Epoch: 28 June)

Event Time Altitude Azimuth Distance (km) Brightness Sun altitude
Rises 20:03:36 0° 283° (WNW) 6,921 7.4 -37.8°
Reaches altitude 10° 20:10:25 10° 271° (W) 4,996 6.4 -38.6°
Enters shadow 20:17:38 21° 238° (WSW) 3,185 5.0 -39.3°
